Location: Molalla
(45.1473°N, 122.5770°W)
Time: 14:01:14
(UTC-08:00)

Vanguard 3 - Visible Passes

Search period start: 17 November 2019 00:00
Search period end: 27 November 2019 00:00
Orbit: 508 x 3263 km, 33.3° (Epoch: 16 November)

Date Brightness Start Highest point End Pass type
(mag) Time Alt. Az. Time Alt. Az. Time Alt. Az.
17 Nov 10.1 17:26:00 10° W 17:43:15 51° SSW 17:54:16 10° ESE visible
17 Nov 9.9 19:43:43 10° W 19:55:38 30° SW 20:00:34 20° S visible
18 Nov 10.2 18:25:49 10° W 18:41:17 42° SSW 18:51:05 10° SE visible
18 Nov 10.4 20:45:16 10° W 20:52:22 16° SW 20:55:41 14° SSW visible
19 Nov 10.3 17:08:17 10° W 17:26:08 51° SSW 17:38:03 10° ESE visible
19 Nov 10.2 19:26:11 10° W 19:38:41 29° SW 19:46:16 13° SSE visible
20 Nov 10.4 18:08:08 10° W 18:24:14 41° SSW 18:34:53 10° SE visible
20 Nov 10.6 20:28:11 10° W 20:35:23 16° SW 20:41:04 10° SSW visible
21 Nov 10.5 16:50:39 10° W 17:08:55 50° SSW 17:21:43 10° SE visible
21 Nov 10.5 19:08:39 10° W 19:21:36 28° SW 19:30:40 10° SSE visible
22 Nov 10.6 17:50:31 10° W 18:07:01 40° SSW 18:18:28 10° SE visible
22 Nov 10.8 20:11:13 10° W 20:18:18 15° SW 20:24:04 10° SSW visible
23 Nov 10.7 18:51:10 10° W 19:04:24 27° SW 19:14:02 10° S visible
24 Nov 10.8 17:32:57 10° W 17:49:41 38° SSW 18:01:54 10° SSE visible
24 Nov 11.1 19:54:27 10° WSW 20:01:05 14° SW 20:06:42 10° SSW visible
25 Nov 10.9 18:33:48 10° W 18:47:04 25° SW 18:57:11 10° S visible
26 Nov 11.0 17:15:31 10° W 17:32:14 37° SSW 17:45:09 10° SSE visible
26 Nov 11.3 19:38:03 10° WSW 19:43:46 13° SW 19:48:50 10° SSW visible
